Weather History for KEYW - August, 2013

Change the Weather History Date:

Thursday, August 8, 2013

  Actual Average Record
Temperature  
Mean Temperature 82 °F 85 °F  
Max Temperature 88 °F 90 °F 95 °F (1951)
Min Temperature 76 °F 80 °F 69 °F (1950)
Degree Days  
Heating Degree Days 0 0  
Month to date heating degree days 0 0  
Since 1 June heating degree days 0 0  
Since 1 July heating degree days 0 0  
Cooling Degree Days 17 20  
Month to date cooling degree days 154 160  
Year to date cooling degree days 2897 2745  
Since 1 June cooling degree days 1268 1315  
Growing Degree Days 32 (Base 50)    
Moisture  
Dew Point 75 °F    
Average Humidity 74    
Maximum Humidity 85    
Minimum Humidity 63    
Precipitation  
Precipitation 0.42 in 0.16 in 1.92 in (1916)
Month to date precipitation 0.53 1.20  
Year to date precipitation 31.66 19.49  
Snow  
Snow 0.00 in - - ()
Month to date snowfall 0.0  
Since 1 June snowfall 0.0  
Since 1 July snowfall 0.0  
Snow Depth 0.00 in    
Sea Level Pressure  
Sea Level Pressure 29.94 in    
Wind  
Wind Speed 15 mph (ESE)    
Max Wind Speed 32 mph    
Max Gust Speed 40 mph    
Visibility 9 miles    
Events Rain , Thunderstorm    
T = Trace of Precipitation, MM = Missing Value Source: NWS Daily Summary

Daily Weather History Graph

Daily Weather History Graph

Search for Another Location

Airport or City:

Trip Planner

Search our weather history database for the weather conditions in past years. The results will help you decide how hot, cold, wet, or windy it might be!

Date:

Astronomy

Aug. 08, 2013 Rise Set
Actual Time 6:58 AM EDT 8:06 PM EDT
Civil Twilight 6:34 AM EDT 8:30 PM EDT
Nautical Twilight 6:06 AM EDT 8:58 PM EDT
Astronomical Twilight 5:36 AM EDT 9:28 PM EDT
Moon 8:26 AM EDT (8/8) 9:05 PM EDT (8/8)
Length of Visible Light 13h 55m
Length of Day
13h 07m
Waxing Crescent, 3% of the Moon is Illuminated
Aug 8
Waxing Crescent
Aug 14
First Quarter
Aug 20
Full
Aug 28
Last Quarter
Sep 5
New

Hourly Weather History & Observations

Time (EDT) Temp. Heat Index Dew Point Humidity Pressure Visibility Wind Dir Wind Speed Gust Speed Precip Events Conditions
12:53 AM 84.0 °F 91.9 °F 75.0 °F 74% 29.94 in 10.0 mi ESE 17.3 mph 24.2 mph N/A   Clear
1:53 AM 84.0 °F 91.9 °F 75.0 °F 74% 29.93 in 10.0 mi ESE 17.3 mph - N/A   Clear
2:53 AM 84.0 °F 91.9 °F 75.0 °F 74% 29.92 in 10.0 mi SE 12.7 mph - N/A   Scattered Clouds
3:53 AM 84.0 °F 91.9 °F 75.0 °F 74% 29.90 in 10.0 mi ESE 16.1 mph 21.9 mph 0.00 in   Scattered Clouds
4:53 AM 82.9 °F 90.2 °F 75.0 °F 77% 29.90 in 10.0 mi SE 18.4 mph 26.5 mph N/A   Partly Cloudy
5:53 AM 81.0 °F 86.7 °F 75.0 °F 82% 29.91 in 10.0 mi East 8.1 mph 21.9 mph 0.00 in   Partly Cloudy
6:09 AM 80.6 °F 86.2 °F 75.2 °F 84% 29.92 in 10.0 mi ESE 19.6 mph 26.5 mph N/A Thunderstorm Scattered Clouds
6:15 AM 78.8 °F - 73.4 °F 83% 29.92 in 1.8 mi ESE 31.1 mph 40.3 mph 0.00 in Rain , Thunderstorm Heavy Rain
6:19 AM 75.2 °F - 71.6 °F 89% 29.92 in 1.0 mi ESE 15.0 mph 40.3 mph 0.13 in Rain Heavy Rain
6:22 AM 77.0 °F - 71.6 °F 83% 29.92 in 1.2 mi SE 10.4 mph 40.3 mph 0.25 in Rain Heavy Rain
6:28 AM 77.0 °F - 73.4 °F 89% 29.91 in 3.0 mi SE 10.4 mph - 0.29 in Rain Rain
6:35 AM 78.8 °F - 73.4 °F 83% 29.91 in 10.0 mi ESE 10.4 mph - 0.29 in Rain Light Rain
6:39 AM 78.8 °F - 75.2 °F 89% 29.91 in 10.0 mi ESE 12.7 mph - 0.29 in   Mostly Cloudy
6:53 AM 80.1 °F 85.1 °F 75.0 °F 85% - 10.0 mi ESE 10.4 mph - 0.29 in   Partly Cloudy
7:53 AM 82.0 °F 89.4 °F 75.9 °F 82% 29.93 in 10.0 mi ESE 9.2 mph - 0.00 in   Mostly Cloudy
8:09 AM 82.4 °F 90.9 °F 77.0 °F 84% 29.93 in 10.0 mi East 6.9 mph - 0.00 in Rain Light Rain
8:16 AM 82.4 °F 90.9 °F 77.0 °F 84% 29.93 in 10.0 mi East 9.2 mph - 0.00 in Rain Light Rain
8:35 AM 77.0 °F - 73.4 °F 89% 29.94 in 1.5 mi ESE 17.3 mph 39.1 mph 0.00 in Rain Heavy Rain
8:38 AM 77.0 °F - 73.4 °F 89% 29.93 in 1.0 mi SE 9.2 mph 39.1 mph 0.05 in Rain Heavy Rain
8:44 AM 78.8 °F - 73.4 °F 83% 29.94 in 2.0 mi ESE 10.4 mph - 0.13 in Rain Light Rain
8:53 AM 79.0 °F - 75.0 °F 88% 29.94 in 10.0 mi East 11.5 mph - 0.13 in Rain Light Rain
9:53 AM 82.9 °F 90.2 °F 75.0 °F 77% 29.96 in 10.0 mi ESE 11.5 mph - 0.00 in   Mostly Cloudy
10:53 AM 82.9 °F 89.4 °F 73.9 °F 74% 29.96 in 10.0 mi SE 18.4 mph 24.2 mph N/A   Partly Cloudy
11:53 AM 87.1 °F 96.3 °F 75.0 °F 67% 29.97 in 10.0 mi ESE 12.7 mph - N/A   Clear
12:53 PM 87.1 °F 97.3 °F 75.9 °F 69% 29.96 in 10.0 mi ESE 15.0 mph 24.2 mph N/A   Clear
1:53 PM 88.0 °F 100.2 °F 77.0 °F 70% 29.96 in 10.0 mi ESE 13.8 mph - N/A   Partly Cloudy
2:53 PM 87.1 °F 96.3 °F 75.0 °F 67% 29.95 in 10.0 mi ESE 17.3 mph - N/A   Clear
3:53 PM 88.0 °F 96.5 °F 73.9 °F 63% 29.94 in 10.0 mi ESE 15.0 mph - N/A   Clear
4:53 PM 87.1 °F 96.3 °F 75.0 °F 67% 29.93 in 10.0 mi ESE 12.7 mph - N/A   Clear
5:53 PM 87.1 °F 96.3 °F 75.0 °F 67% 29.91 in 10.0 mi ESE 16.1 mph - N/A   Clear
6:53 PM 84.9 °F 93.3 °F 75.0 °F 72% 29.92 in 10.0 mi East 17.3 mph 21.9 mph N/A   Partly Cloudy
7:53 PM 84.0 °F 91.2 °F 73.9 °F 72% 29.93 in 10.0 mi East 13.8 mph - N/A   Clear
8:53 PM 84.0 °F 91.2 °F 73.9 °F 72% 29.96 in 10.0 mi ESE 18.4 mph - N/A   Clear
9:53 PM 84.0 °F 91.9 °F 75.0 °F 74% 29.97 in 10.0 mi ESE 15.0 mph - N/A   Partly Cloudy
10:53 PM 84.0 °F 91.2 °F 73.9 °F 72% 29.97 in 10.0 mi East 16.1 mph - N/A   Partly Cloudy
11:53 PM 84.0 °F 90.2 °F 73.0 °F 69% 29.97 in 10.0 mi East 17.3 mph - N/A   Clear